Skip Page Navigation
NASA JPL Caltech
NASA Logo - Jet Propulsion Laboratory + View the NASA Portal
+ Center for Near-Earth Object Studies
JPL Home Earth Solar System Stars & Galaxies Technology
JPL Solar System Dynamics
BODIES ORBITS EPHEMERIDES TOOLS PHYSICAL DATA DISCOVERY FAQ SITE MAP
IMPORTANT: The SSD Announcement email list is now available. Major changes are coming in the near future, including possible hostname and/or URL changes. To be notified of such changes, subscribe to this email list.

Please visit this page for more details.


JPL Small-Body Database Browser
Search: [ help ]  
382008 (2010 XE83)
Classification: Main-belt Asteroid          SPK-ID: 2382008
Ephemeris | Orbit Diagram | Orbital Elements | Mission Design | Physical Parameters | Discovery Circumstances ]

[ show orbit diagram ]
Orbital Elements at Epoch 2458600.5 (2019-Apr-27.0) TDB
Reference: JPL 12 (heliocentric ecliptic J2000)
 Element Value Uncertainty (1-sigma)   Units 
e .1579484586243007 9.1066e-08  
a 2.206775521880794 3.9567e-08 au
q 1.858218729669886 2.2202e-07 au
i 2.930774720425321 7.7108e-06 deg
node 229.2971851462501 0.00020759 deg
peri 163.2222974667163 0.00021158 deg
M 233.2811573217338 4.833e-05 deg
tp 2459021.977466622338
(2020-Jun-21.47746662)
0.0001693 TDB
period 1197.3901021909
3.28
3.2204e-05
8.817e-08
d
yr
n .3006538966217421 8.086e-09 deg/d
Q 2.555332314091702 4.5817e-08 au
  Orbit Determination Parameters
   # obs. used (total)      77  
   data-arc span      3635 days (9.95 yr)  
   first obs. used      2008-02-07  
   last obs. used      2018-01-20  
   planetary ephem.      DE431  
   SB-pert. ephem.      SB431-N16  
   condition code      0  
   norm. resid. RMS      .66262  
   source      ORB  
   producer      Otto Matic  
   solution date      2018-Feb-06 09:33:44  

Additional Information
 Earth MOID = .863805 au 
 Jupiter MOID = 2.8666 au 
 T_jup = 3.642 
[ show covariance matrix ]

Ephemeris | Orbit Diagram | Orbital Elements | Mission Design | Physical Parameters | Discovery Circumstances ]

Physical Parameter Table
Parameter Symbol Value Units Sigma Reference Notes
absolute magnitude H 18.1   n/a MPO437564  

382008 (2010 XE83)          Discovered 2008-Feb-07 by Mt. Lemmon Survey at Mount Lemmon
Reference: Last Updated: 2013-12-19

Alternate Designations
 2010 XE83 = 2008 CD122 
Ephemeris | Orbit Diagram | Orbital Elements | Mission Design | Physical Parameters | Discovery Circumstances ]
ABOUT SSD CREDITS/AWARDS PRIVACY/COPYRIGHT GLOSSARY LINKS
FirstGov
(server date/time)  
NASA Home Page
Site Manager:   Ryan S. Park
Webmaster  Alan B. Chamberlin